Simultaneous Nadir Overpasses (SNOs) Predictions

Prediction of SNOs between AQUA and GOES-15 Satellite Orbit:

Table of predicted SNOs for the next 14.0 days since TLE Epoch: 7/22/2016
Index Date Time (AQUA) AQUA Lat,Lon GOES-15 Lat,Lon Distance(km) Time Diff (sec)
1 07/22/2016 22:53:01 -0.68,-139.34 0.21,-135.22 467.96 80
2 07/24/2016 10:19:26 -1.04,-131.18 -0.19,-135.18 453.97 80
3 07/24/2016 22:40:51 -0.05,-136.38 0.21,-135.17 138.38 80
4 07/26/2016 22:28:40 0.59,-133.43 0.21,-135.10 190.48 80
5 07/27/2016 10:49:54 0.53,-138.58 -0.23,-135.08 398.32 80
6 07/29/2016 10:37:43 -0.10,-135.63 -0.23,-135.01 70.41 80
7 07/31/2016 10:25:32 -0.74,-132.68 -0.23,-134.93 256.93 80
8 07/31/2016 22:46:56 -0.38,-137.87 0.25,-134.91 336.09 80
9 08/02/2016 22:34:45 0.26,-134.92 0.25,-134.83 9.60 80
10 08/04/2016 22:22:33 0.85,-131.95 0.25,-134.75 317.95 80
11 08/05/2016 10:43:49 0.22,-137.12 -0.26,-134.73 271.16 80




NCC Satellite Simultaneous Nadir Overpasses (SNOs) Prediction Service
